www.pogodaiklimat.ru

Погода и климат >> Архив погоды >> Саудовская Аравия >> Гизан


ПОГОДА в Гизане

  • Прогноз погоды в Гизане
  • Монитор погоды в Гизане

АРХИВ ПОГОДЫ в Гизане

Время (UTC), дата Ветер
(напр.,м/с)
 
Видим.   Явления Облачность Т
(С)
Тd
(С)
f
(%)
Тe
(С)
Тes
(С)
Комфортность P
(гПа)
Po
(гПа)
Тmin
(С)
Tmax
(С)
R
(мм)
R24
(мм)
S
(см)
00 14.06 ЮЗ 3 9000 м пыль 1/0
[Ac trans]
+33.6 +28.0 73 +55 +55 опасность
перегрева
1003.2 1002.6
03 14.06 В 4 5000 м пыль ясно +33.2 +28.0 74 +54 +54 опасность
перегрева
1003.2 1002.8
06 14.06 ЮВ 3 8000 м пыль 1/1 900 м
[Cu hum]
+36.6 +26.0 55 +52 +60 опасность
перегрева
1004.2 1003.7 +32.2
09 14.06 ЮЗ 7 6000 м пыльный позёмок ясно +37.7 +29.0 61 +60 +67 опасность
перегрева
1003.2 1002.8
12 14.06 З 7 3000 м пыльный позёмок 1/1 900 м
[Cu hum]
+37.1 +29.0 63 +60 +64 опасность
перегрева
1002.2 1001.2
15 14.06 З 7 4500 м пыль 5/4 900 м
[Cb cap Ac trans]
+34.3 +27.0 66 +52 +53 опасность
перегрева
1002.2 1001.9
18 14.06 З 5 8000 м пыль 6/4 900 м
[Sc diur, vesp Ac trans]
+33.9 +27.0 67 +52 +52 опасность
перегрева
1004.2 1003.1 +39.2
21 14.06 В 2 9000 м мгла 6/4 900 м
[Sc diur, vesp Ac trans]
+34.2 +26.0 62 +50 +50 опасность
перегрева
1004.2 1003.2
00 15.06 ЮВ 2 9000 м мгла 5/1 900 м
[Sc diur, vesp Ac trans]
+33.7 +27.0 68 +52 +52 опасность
перегрева
1003.2 1002.2
03 15.06 ЮВ 2 9000 м мгла ясно +32.8 +27.0 72 +51 +51 опасность
перегрева
1003.2 1002.9
06 15.06 Ю 4 9000 м пыль ясно +35.1 +27.0 63 +53 +61 опасность
перегрева
1005.2 1004.4 +32.0
09 15.06 ЮЗ 5-4
{4}
9000 м пыль 1/1 900 м
[Cu hum]
+37.0 +28.0 60 +57 +67 опасность
перегрева
1004.2 1003.0 399
12 15.06 З 7 8000 м пыль 4/4 900 м
[Cu med, cong]
+36.2 +29.0 67 +60 +62 опасность
перегрева
1002.2 1001.5
15 15.06 СЗ 7 9000 м пыль 5/5 900 м
[Cb calv]
+34.3 +27.0 66 +52 +53 опасность
перегрева
1002.2 1001.7
18 15.06 З 4 10 км 4/1 900 м
[Sc diur, vesp Ac trans]
+33.4 +27.0 69 +51 +51 опасность
перегрева
1004.2 1003.3 +38.0
21 15.06 штиль 0 9000 м мгла 6/1 900 м
[Sc diur, vesp Ac trans]
+33.9 +27.0 67 +52 +52 опасность
перегрева
1003.2 1002.6
00 16.06 В 3 9000 м мгла 5/1 900 м
[Sc diur, vesp Ac trans]
+33.5 +27.0 69 +52 +52 опасность
перегрева
1003.2 1002.0
03 16.06 В 3 8000 м мгла ясно +32.5 +27.0 73 +51 +51 опасность
перегрева
1004.2 1003.4
06 16.06 ЮВ 4 9000 м пыль ясно +36.0 +27.0 60 +54 +62 опасность
перегрева
1005.2 1004.5 +31.5
09 16.06 Ю 5 9000 м пыль 1/1 900 м
[Cu hum]
+37.4 +28.0 59 +58 +68 опасность
перегрева
1004.2 1003.6
12 16.06 З 7 9000 м пыль 1/1 900 м
[Cu hum]
+36.6 +28.0 61 +57 +60 опасность
перегрева
1003.2 1002.0
15 16.06 З 4 10 км гроза без осадков 9/8 900 м
[Cb cap As trans]
+34.8 +24.0 54 +47 +47 опасность
перегрева
1004.2 1003.0
18 16.06 СЗ 4 10 км 8/5 900 м
[Sc diur, vesp Ac trans]
+34.6 +25.0 58 +48 +48 опасность
перегрева
1004.2 1003.5 +39.0
21 16.06 штиль 0 10 км 5/3 900 м
[Sc diur, vesp Ac trans]
+34.3 +26.0 62 +50 +50 опасность
перегрева
1004.2 1003.8
00 17.06 В 3 10 км 3/0
[Ac trans]
+32.0 +25.0 67 +46 +46 опасность
перегрева
1003.2 1002.4
03 17.06 В 2 8000 м мгла 1/0
[Ac trans]
+31.7 +23.0 60 +42 +42 опасность
перегрева
1004.2 1003.2
06 17.06 штиль 0 10 км 3/3 900 м
[Cu hum]
+35.6 +27.0 61 +53 +64 опасность
перегрева
1005.2 1004.6 +31.0 0.0
09 17.06 ЮЗ 5 10 км 1/1 900 м
[Cu hum]
+36.9 +28.0 60 +57 +67 опасность
перегрева
1005.2 1004.3
12 17.06 ЮЗ 7 9000 м пыль 4/1 900 м
[Cu hum Ac trans]
+36.3 +28.0 63 +57 +60 опасность
перегрева
1003.2 1002.8
15 17.06 З 7 10 км 4/1 900 м
[Cu hum Ac trans]
+34.1 +28.0 71 +55 +55 опасность
перегрева
1004.2 1003.0
18 17.06 СЗ 5 8000 м пыль 5/1 900 м
[Cu hum Ac trans]
+34.8 +26.0 60 +50 +50 опасность
перегрева
1004.2 1003.8 +37.9
21 17.06 З 2 10 км 5/1 900 м
[Cu hum Ac trans]
+34.3 +27.0 66 +52 +52 опасность
перегрева
1005.2 1004.1
00 18.06 Ю 2 10 км 5/1 900 м
[Cu hum Ac trans]
+33.7 +28.0 72 +54 +54 опасность
перегрева
1004.2 1003.4
03 18.06 Ю 3 10 км 5/1 900 м
[Cu hum Ac trans]
+32.8 +27.0 72 +51 +51 опасность
перегрева
1005.2 1004.7
06 18.06 Ю 4 10 км 1/1 900 м
[Cu hum]
+34.9 +27.0 64 +53 +60 опасность
перегрева
1006.2 1005.9 +32.1
09 18.06 З 5 10 км 1/1 900 м
[Cu hum]
+36.6 +28.0 61 +57 +67 опасность
перегрева
1006.2 1005.3
12 18.06 З 8 9000 м пыль 3/3 900 м
[Cu hum]
+36.3 +27.0 59 +54 +56 опасность
перегрева
1004.2 1003.8
15 18.06 З 7 9000 м пыльный позёмок 4/1 900 м
[Cu hum Ac trans]
+35.4 +26.0 58 +51 +51 опасность
перегрева
1004.2 1003.2
18 18.06 СЗ 4 10 км 6/3 900 м
[Sc diur, vesp Ac trans]
+34.0 +26.0 63 +50 +50 опасность
перегрева
1005.2 1004.6 +38.0
21 18.06 З 4 10 км ясно +33.6 +26.0 65 +50 +50 опасность
перегрева
1006.2 1005.2 90
00 19.06 штиль 0 10 км ясно +32.9 +26.0 67 +49 +49 опасность
перегрева
1004.2 1003.4
03 19.06 Ю 3 10 км ясно +32.6 +27.0 72 +50 +50 опасность
перегрева
1004.2 1003.3
06 19.06 ЮЗ 3 8000 м мгла ясно +35.2 +26.0 59 +51 +60 опасность
перегрева
1005.2 1004.4 +31.6
09 19.06 ЮЗ 5 8000 м пыль ясно +37.0 +26.0 53 +52 +63 опасность
перегрева
1004.2 1003.8
12 19.06 З 6 8000 м пыль ясно +37.3 +26.0 53 +53 +59 опасность
перегрева
1002.2 1001.9
15 19.06 З 6 9000 м пыль 3/3 900 м
[Sc diur, vesp]
+34.5 +28.0 69 +55 +55 опасность
перегрева
1002.2 1001.8
18 19.06 З 4 7000 м пыль 4/1 900 м
[Sc diur, vesp Ac trans]
+34.0 +28.0 71 +55 +55 опасность
перегрева
1004.2 1003.6 +38.3
21 19.06 З 2 9000 м мгла 1/1 900 м
[Sc diur, vesp]
+33.5 +27.0 69 +52 +52 опасность
перегрева
1004.2 1003.3
00 20.06 Ю 2 10 км 1/1 900 м
[Sc diur, vesp]
+33.1 +27.0 70 +51 +51 опасность
перегрева
1003.2 1002.1
03 20.06 В 2 9000 м мгла ясно +32.6 +27.0 72 +50 +50 опасность
перегрева
1004.2 1003.0
06 20.06 ЮВ 2 10 км ясно +34.8 +27.0 64 +53 +64 опасность
перегрева
1004.2 1003.5 +31.6
09 20.06 ЮЗ 4 10 км ясно +37.7 +26.0 51 +53 +67 опасность
перегрева
1003.2 1002.7
12 20.06 З 7 8000 м пыль 3/3 900 м
[Cu hum]
+36.2 +27.0 59 +54 +57 опасность
перегрева
1002.2 1001.5
15 20.06 З 6 10 км 4/1 900 м
[Cu hum Ac trans]
+34.3 +27.0 66 +52 +53 опасность
перегрева
1002.2 1001.5
18 20.06 СВ 3 10 км 6/4 900 м
[Cu hum Ac trans]
+34.3 +27.0 66 +52 +52 опасность
перегрева
1003.2 1002.9 +38.7

 

Местоположение метеостанции Гизан (Саудовская Аравия): широта 16.88 долгота 42.58 высота над уровнем моря 7 м.

В архиве по умолчанию представлена погода в Гизане за последнюю неделю. Архивные данные за месяц целиком и за предыдущие месяцы, начиная с января 2011 года, Вы можете получить, выбрав интересующий диапазон дат из раскрывающегося списка и нажав кнопку "Ввод!".


*Определитесь, кто Вы:
робот инопланетянин человек

Внимание! Время в таблицах - всемирное. Для получения местного времени необходимо прибавить поправку, которая равна 3 ч.

Смотрите также архив погоды в соседних городах и на ближайших метеорологических станциях:

Погода в Абхе (Саудовская Аравия) (150 км)
Погода в Хадже (Йемен) (158 км)
Погода в Хамис-Мушайте (Саудовская Аравия) (160 км)
Погода в Найране (Саудовская Аравия) (212 км)
Погода в Сане (Йемен) (228 км)
Погода в Ходейде (Йемен) (241 км)
Погода в Дамаре (Йемен) (323 км)
Погода в Марибе (Йемен) (335 км)
Погода в Бише (Саудовская Аравия) (345 км)
Погода в Аль-Бахе (Саудовская Аравия) (393 км)

Пояснения к столбцам:

Ветер - указаны скорость ветра в м/с - средняя за 10 мин, порывы в срок и между сроками (в фигурных скобках) и направление, откуда дует ветер: С - северный, СВ - северо-восточный, В - восточный, ЮВ - юго-восточный, Ю - южный, ЮЗ - юго-западный, З - западный, СЗ - северо-западный.
Видимость - горизонтальная дальность видимости в метрах или километрах. При видимости от 1 до 10 км при отсутствии осадков обычно наблюдается дымка, при ухудшении видимости до 1 км и менее - туман. В сухую погоду видимость может ухудшаться дымом, пылью или мглою.
Явления - указаны атмосферные явления, наблюдавшиеся в срок или в последний час перед сроком; фигурными скобками обозначены явления, наблюдавшиеся между сроками (за 1-3 часа до срока); квадратными скобками обозначены град или гололедные отложения с указанием их диаметра в мм.
Облачность - указаны через наклонную черту общая и нижняя облачность в баллах и высота нижней границы облаков в метрах; квадратными скобками обозначены формы облаков: Ci - перистые, Cs - перисто-слоистые, Cc - перисто-кучевые, Ac - высококучевые, As - высокослоистые, Sc - слоисто-кучевые, Ns - слоисто-дождевые, Cu - кучевые, Cb - кучево-дождевые. Подробнее классификацию облаков см. в Атласе облаков (PDF).
T - Температура воздуха - температура, измеренная на высоте 2 м над землей.
Td - Температура точки росы - температура, при понижении до которой содержащийся в воздухе водяной пар достигнет насыщения.
f - Относительная влажность воздуха - влажноcть воздуха, измеренная на высоте 2 м над землей.
Te - Эффективная температура - температура, которую ощущает одетый по сезону человек в тени. Характеристика душности погоды. При расчете учитывается влияние влажности воздуха и скорости ветра на теплоощущения человека.
Tes - Эффективная температура на солнце - температура, которую ощущает человек, с поправкой на солнечный нагрев. Характеристика знойности погоды. Зависит от высоты солнца над горизонтом, облачности и скорости ветра. Ночью, в пасмурную погоду, а также при ветре 12 м/с и более поправка равна нулю.
P - Атмосферное давление - приведенное к уровню моря атмосферное давление.
Po - Атмосферное давление - измеренное на уровне метеостанции атмосферное давление.
Tmin - Минимальная температура - минимум температуры воздуха на высоте 2 м над землей.
Tmax - Максимальная температура - максимум температуры воздуха на высоте 2 м над землей.
R - Количество осадков - Количество выпавших осадков за период времени, мм. При наведении курсора мыши на число - период времени, за который выпало указанное количество осадков.
R24 - Количество осадков - Количество выпавших осадков за 24 часа, мм.
S - Снежный покров - Высота снежного покрова, см. При наведении курсора мыши на число - состояние снежного покрова и степень покрытия местности в баллах.